Location: Cuzcurrita-R�o Tir�n
(42.5415°N, 2.9642°W)
Time: 19:09:32
(UTC+00:00)

COSMO-SKYMED 1 - Pass Details

Date: 17 January 2021
Orbit: 621 x 623 km, 97.9° (Epoch: 03 March)

Event Time Altitude Azimuth Distance (km) Brightness Sun altitude
Rises 18:39:25 0° 8° (N) 2,914 5.8 -16.8°
Reaches altitude 10° 18:41:38 10° 4° (N) 2,003 5.0 -17.2°
Maximum altitude 18:45:53 55° 287° (WNW) 749 3.2 -18.0°
Drops below altitude 10° 18:50:07 10° 209° (SSW) 1,987 5.7 -18.8°
Sets 18:52:19 0° 205° (SSW) 2,888 6.5 -19.2°
